FW5736 Weather Reports


Display with metric or nautical units.
time (UTC)temp
F
wind
direction
speed
MPH
gust
MPH
rain 1hr
in
rain 24hr
in
rain mn
in
humidity
%
barometer
mb
20260504120106 64 359 0.0 0.0 0.00 0.01 0.01 88 1015.2
20260504110605 66 359 0.0 0.0 0.00 0.01 0.01 85 1014.7
20260504110105 66 359 0.0 0.0 0.00 0.01 0.01 85 1014.6
20260504100605 67 359 0.0 0.0 0.00 0.01 0.01 85 1013.8
20260504100105 67 359 0.0 0.0 0.00 0.01 0.01 85 1013.8
20260504090105 67 359 0.0 0.0 0.00 0.01 0.01 87 1013.8
20260504081605 67 359 0.0 0.0 0.00 0.01 0.01 86 1013.5
20260504081105 67 359 0.0 0.0 0.00 0.01 0.01 86 1013.6
20260504080105 67 359 0.0 0.0 0.00 0.01 0.01 86 1013.4
20260504070105 67 359 0.0 2.0 0.00 0.01 0.01 85 1013.3
20260504060105 68 359 0.0 3.0 0.00 0.01 0.01 85 1013.1
20260504050604 68 359 0.0 2.0 0.00 0.01 0.01 88 1013.4
20260504050104 68 359 0.0 0.0 0.00 0.01 0.01 88 1013.4
20260504045604 67 359 0.0 1.0 0.00 0.01 0.01 89 1013.4
20260504044604 67 359 0.0 0.0 0.00 0.01 0.01 90 1013.2
20260504044104 67 359 0.0 0.0 0.00 0.01 0.01 90 1013.3
20260504043104 66 359 1.0 3.0 0.00 0.01 0.01 92 1013.4
20260504042605 66 359 0.0 2.0 0.00 0.01 0.01 92 1013.4
20260504042105 66 0 1.0 8.0 0.00 0.01 0.01 93 1013.5
20260504041605 66 8 0.0 3.0 0.00 0.01 0.01 94 1013.6
20260504041104 65 1 0.0 0.0 0.00 0.01 0.01 94 1013.6
20260504040604 65 2 0.0 1.0 0.00 0.01 0.01 94 1013.7
20260504040104 65 3 0.0 0.0 0.00 0.01 0.01 94 1013.6
20260504035104 64 3 0.0 0.0 0.00 0.01 0.01 94 1013.8
20260504034605 64 10 0.0 0.0 0.00 0.01 0.01 94 1013.7
20260504033605 64 359 0.0 0.0 0.00 0.01 0.01 94 1013.8
20260504033105 64 6 0.0 0.0 0.00 0.01 0.01 94 1014.0
20260504032605 64 2 0.0 0.0 0.00 0.01 0.01 94 1014.1
20260504032105 64 6 0.0 3.0 0.00 0.01 0.01 94 1014.2
20260504031604 64 27 0.0 0.0 0.00 0.01 0.01 94 1014.2
20260504031104 64 30 0.0 1.0 0.00 0.01 0.01 94 1014.4
20260504030605 64 2 1.0 5.0 0.00 0.01 0.01 94 1014.5
20260504030105 64 359 1.0 7.0 0.00 0.01 0.01 94 1014.7
20260504025605 64 359 1.0 5.0 0.00 0.01 0.01 94 1014.7
20260504025104 64 28 1.0 6.0 0.00 0.01 0.01 94 1014.7
20260504024604 64 51 1.0 8.0 0.00 0.01 0.01 93 1014.9
20260504024104 64 23 0.0 3.0 0.00 0.01 0.01 93 1014.8
20260504023604 64 21 0.0 3.0 0.00 0.01 0.01 93 1014.9
20260504023104 64 22 1.0 3.0 0.00 0.01 0.01 93 1015.0
20260504022604 64 50 0.0 1.0 0.00 0.01 0.01 93 1015.2
20260504022104 64 50 0.0 0.0 0.00 0.01 0.01 93 1015.5
20260504021604 64 50 0.0 0.0 0.00 0.01 0.01 93 1015.5
20260504021104 64 121 0.0 1.0 0.00 0.01 0.01 93 1015.7
20260504020604 64 116 0.0 0.0 0.00 0.01 0.01 93 1015.7
20260504020104 64 122 0.0 0.0 0.00 0.01 0.01 93 1016.1
20260504015604 64 359 0.0 0.0 0.00 0.01 0.01 93 1016.2
20260504015104 64 3 0.0 0.0 0.00 0.01 0.01 92 1016.2
20260504014604 65 5 0.0 0.0 0.00 0.01 0.01 92 1016.2
20260504014104 65 4 0.0 0.0 0.00 0.01 0.01 92 1016.4
20260504013604 65 4 0.0 0.0 0.00 0.01 0.01 92 1016.4
20260504013104 65 4 0.0 0.0 0.00 0.01 0.01 92 1016.4
20260504012604 65 1 0.0 0.0 0.00 0.01 0.01 92 1016.5
20260504012104 65 359 0.0 0.0 0.00 0.01 0.01 92 1016.4
20260504011605 65 359 0.0 0.0 0.00 0.01 0.01 92 1016.4
20260504010605 65 4 0.0 0.0 0.00 0.01 0.01 92 1016.3
20260504010105 65 359 0.0 0.0 0.00 0.01 0.01 92 1016.5
20260504005605 65 359 0.0 0.0 0.00 0.01 0.01 91 1016.6
20260504005104 64 359 0.0 0.0 0.00 0.01 0.01 91 1016.6
20260504004605 64 359 0.0 0.0 0.01 0.01 0.01 91 1016.6
20260504004104 64 359 0.0 0.0 0.01 0.01 0.01 91 1016.5
20260504003604 64 1 0.0 0.0 0.01 0.01 0.01 91 1016.5
20260504003104 64 4 0.0 0.0 0.01 0.01 0.01 91 1016.5
20260504002604 64 4 0.0 0.0 0.01 0.01 0.01 91 1016.4
20260504002104 64 0 0.0 0.0 0.01 0.01 0.01 90 1016.4
20260504001104 64 1 0.0 0.0 0.01 0.01 0.01 90 1016.6
20260504000604 64 359 0.0 0.0 0.01 0.01 0.01 89 1016.6
20260504000105 64 359 0.0 0.0 0.01 0.01 0.01 89 1016.6
20260503235604 64 7 0.0 0.0 0.01 0.01 0.01 89 1016.6
20260503234605 64 8 0.0 0.0 0.00 0.00 0.00 88 1016.7
20260503234104 64 1 0.0 2.0 0.00 0.00 0.00 88 1016.8
20260503233604 65 122 0.0 5.0 0.00 0.00 0.00 88 1016.9
20260503233105 65 359 0.0 5.0 0.00 0.00 0.00 87 1016.9
20260503232604 65 359 1.0 5.0 0.00 0.00 0.00 88 1017.0
20260503232104 65 359 2.0 7.0 0.00 0.00 0.00 88 1017.0
20260503231604 65 359 0.0 0.0 0.00 0.00 0.00 89 1016.9
20260503230604 65 359 0.0 3.0 0.00 0.00 0.00 90 1016.9
20260503230104 65 359 0.0 3.0 0.00 0.00 0.00 90 1016.8
20260503225104 64 359 1.0 5.0 0.00 0.00 0.00 90 1016.6
20260503224604 64 10 0.0 1.0 0.00 0.00 0.00 91 1016.5
20260503223604 64 10 0.0 0.0 0.00 0.00 0.00 92 1016.3
20260503223104 64 10 0.0 0.0 0.00 0.00 0.00 92 1016.1
20260503222104 64 10 0.0 0.0 0.00 0.00 0.00 92 1015.9
20260503221604 64 9 0.0 0.0 0.00 0.00 0.00 92 1015.9
20260503221104 64 10 0.0 0.0 0.00 0.00 0.00 92 1015.9
20260503220604 64 10 0.0 0.0 0.00 0.00 0.00 92 1015.8
20260503215604 63 10 0.0 0.0 0.00 0.00 0.00 92 1015.9
20260503214604 63 10 0.0 0.0 0.00 0.00 0.00 92 1016.0
20260503214104 63 10 0.0 0.0 0.00 0.00 0.00 92 1016.0
20260503213604 63 9 0.0 0.0 0.00 0.00 0.00 92 1015.8
20260503213104 63 10 0.0 0.0 0.00 0.00 0.00 92 1015.7
20260503212104 63 10 0.0 0.0 0.00 0.00 0.00 92 1015.6
20260503211604 63 10 0.0 0.0 0.00 0.00 0.00 92 1015.5
20260503211104 63 10 0.0 0.0 0.00 0.00 0.00 92 1015.5
20260503210604 63 10 0.0 0.0 0.00 0.00 0.00 92 1015.5
20260503205604 63 10 0.0 0.0 0.00 0.00 0.00 92 1015.4
20260503204604 63 9 0.0 0.0 0.00 0.00 0.00 92 1015.4
20260503204104 63 10 0.0 0.0 0.00 0.00 0.00 92 1015.3
20260503203604 63 9 0.0 0.0 0.00 0.00 0.00 92 1015.2
20260503203104 63 10 0.0 0.0 0.00 0.00 0.00 92 1015.2
20260503202604 63 10 0.0 0.0 0.00 0.00 0.00 92 1015.1
20260503202104 62 9 0.0 0.0 0.00 0.00 0.00 92 1015.1
20260503201604 62 10 0.0 0.0 0.00 0.00 0.00 92 1015.1
20260503201104 62 10 0.0 0.0 0.00 0.00 0.00 92 1015.0
20260503200104 62 10 0.0 0.0 0.00 0.00 0.00 92 1015.0
20260503195104 62 10 0.0 0.0 0.00 0.00 0.00 92 1014.8
20260503194604 62 10 0.0 0.0 0.00 0.00 0.00 92 1014.8
20260503194104 62 10 0.0 0.0 0.00 0.00 0.00 92 1014.7
20260503193604 62 10 0.0 0.0 0.00 0.00 0.00 92 1014.7
20260503192604 62 10 0.0 0.0 0.00 0.00 0.00 92 1014.7
20260503192104 62 10 0.0 0.0 0.00 0.00 0.00 92 1014.7
20260503191604 62 10 0.0 0.0 0.00 0.00 0.00 92 1014.7
20260503190604 62 10 0.0 0.0 0.00 0.00 0.00 92 1014.7
20260503190104 62 10 0.0 0.0 0.00 0.00 0.00 92 1014.7
20260503184604 62 10 0.0 0.0 0.00 0.00 0.00 92 1014.8
20260503184104 62 10 0.0 0.0 0.00 0.00 0.00 92 1014.7
20260503183604 62 10 0.0 0.0 0.00 0.00 0.00 92 1014.8
20260503183104 62 10 0.0 0.0 0.00 0.00 0.00 92 1014.9
20260503182604 62 10 0.0 0.0 0.00 0.00 0.00 92 1014.8
20260503182104 62 10 0.0 0.0 0.00 0.00 0.00 92 1014.8
20260503181604 62 10 0.0 0.0 0.00 0.00 0.00 91 1014.7
20260503180104 62 10 0.0 0.0 0.00 0.00 0.00 91 1014.7
20260503175104 62 10 0.0 0.0 0.00 0.00 0.00 91 1014.8
20260503174104 62 10 0.0 0.0 0.00 0.00 0.00 91 1014.8
20260503173604 62 10 0.0 0.0 0.00 0.00 0.00 91 1014.8
20260503171603 62 10 0.0 0.0 0.00 0.00 0.00 91 1014.9
20260503171103 62 10 0.0 0.0 0.00 0.00 0.00 91 1015.0
20260503170604 62 10 0.0 0.0 0.00 0.00 0.00 91 1015.0
20260503170103 62 10 0.0 0.0 0.00 0.00 0.00 91 1015.1
20260503160105 63 10 0.0 0.0 0.00 0.00 0.00 90 1015.8
20260503150605 64 10 0.0 0.0 0.00 0.00 0.00 89 1016.1
20260503150105 64 10 0.0 0.0 0.00 0.00 0.00 88 1016.1
20260503140105 65 10 0.0 0.0 0.00 0.00 0.00 87 1016.6
20260503131105 67 10 0.0 0.0 0.00 0.00 0.00 86 1017.1
20260503130105 67 10 0.0 0.0 0.00 0.00 0.00 86 1017.2